Regional Weather Roundup
Issued by NWS Columbia, SC

Home | Current Version | Previous Version | Text Only | Print | Product List | Glossary On
Versions: 1 2 3 4 5 6 7 8 9 10 11 12 13 14 15 16 17 18 19 20 21 22 23 24 25 26 27 28 29 30 31 32 33 34 35 36 37 38 39 40 41 42 43 44 45 46 47 48 49 50
000
ASUS42 KCAE 161110
RWRCAE
REGIONAL WEATHER ROUNDUP
NATIONAL WEATHER SERVICE COLUMBIA SC
700 AM EDT TUE SEP 16 2014

NOTE: "FAIR" INDICATES FEW OR NO CLOUDS BELOW 12,000 FEET WITH NO
SIGNIFICANT WEATHER AND/OR OBSTRUCTIONS TO VISIBILITY.

NOT ALL STATIONS ARE QUALITY CONTROLLED BY THE NATIONAL
WEATHER SERVICE. USE DATA WITH CAUTION...ESPECIALLY
DEWPOINT OBSERVATIONS.

SCZ001>056-GAZ040-063>065-077-161200-
...UPSTATE SOUTH CAROLINA...

CITY           SKY/WX    TMP DP  RH WIND       PRES   REMARKS
ANDERSON       CLOUDY    71  70  96 CALM      30.09R
LIBERTY        CLOUDY    69  69 100 W6        30.09S FOG
SPARTANBURG    FAIR      72 N/A N/A W5        30.07S HAZE
CLEMSON        CLOUDY    71  68  90 W6        30.10S FOG
GREENVILLE     CLOUDY    71  68  90 VRB5      30.09S FOG
GREENWOOD      MOCLDY    71  68  90 W5        30.09R
GREER          CLOUDY    70  69  97 CALM      30.07S FOG
ROCK HILL      CLOUDY    70  69  97 W6        30.07S
LAURENS        FAIR      68 N/A N/A SW5       30.08S HAZE


...CENTRAL SOUTH CAROLINA...

CITY           SKY/WX    TMP DP  RH WIND       PRES   REMARKS
COLUMBIA APT   CLOUDY    73  71  93 W5        30.06R FOG
COLUMBIA OWENS CLOUDY    73  71  93 CALM      30.07R FOG
DARLINGTON     CLOUDY    72  66  83 CALM      30.07R
FLORENCE       CLOUDY    73  70  90 S3        30.05S
MCENTIRE ANGB  FOG       71  71 100 NW2       30.07R VSB 1/8
ORANGEBURG     CLOUDY    73  71  93 SW3       30.06S
SUMTER SHAW    CLOUDY    72  68  88 CALM      30.05R
NEWBERRY       PTSUNNY   70  70 100 W3        30.10R FOG
AIKEN          FOG       72  72 100 CALM      30.10S VSB 3/4
BARNWELL       CLOUDY    73  73 100 CALM      30.08R FOG
MANNING        PTSUNNY   73 N/A N/A CALM      30.05S
CAMDEN         FAIR      70  70 100 CALM      30.07R FOG
LANCASTER      CLOUDY    70  70 100 NW5       30.07S FOG
WINNSBORO      FAIR      70  70 100 CALM      30.06R FOG


...EASTERN AND COASTAL SOUTH CAROLINA...

CITY           SKY/WX    TMP DP  RH WIND       PRES   REMARKS
MYRTLE BEACH   CLOUDY    72  68  88 CALM      30.04F
N MYRTLE BCH   CLOUDY    71  69  93 CALM      30.04F
CONWAY         PTSUNNY   70 N/A N/A CALM      30.05S HAZE
MARION         CLOUDY    72  70  94 CALM      30.06R
HARTSVILLE     CLOUDY    72  70  94 CALM      30.07R
FLORENCE       CLOUDY    73  70  90 S3        30.05S
DARLINGTON     CLOUDY    72  66  83 CALM      30.07R
CHARLESTON APT MOCLDY    75  73  94 CALM      30.05F FOG
MOUNT PLEASANT FOG       73  73 100 CALM      30.05S VSB<1/4
WALTERBORO     PTSUNNY   72 N/A N/A CALM      30.07R
BEAUFORT       MOCLDY    75  72  90 CALM      30.05S


...EASTERN GEORGIA...

CITY           SKY/WX    TMP DP  RH WIND       PRES   REMARKS
AUGUSTA BUSH F CLOUDY    73  72  96 CALM      30.06R FOG
AUGUSTA DANIEL MOCLDY    73  72  96 CALM      30.07F FOG
THOMSON        MOCLDY    72  72 100 CALM      30.12S
WASHINGTON     RAIN      72 N/A N/A CALM      30.09R
SYLVANIA       PTSUNNY   72  72  98 CALM      30.07S FOG
SAVANNAH       CLOUDY    74  72  93 CALM      30.06S


...SOUTHERN NORTH CAROLINA...

CITY           SKY/WX    TMP DP  RH WIND       PRES   REMARKS
CHARLOTTE      CLOUDY    70  67  90 W3        30.07S
MONROE         CLOUDY    71  68  90 W6        30.05F
WADESBORO      FOG       68  66  94 CALM      30.05S VSB 3/4
ROCKINGHAM     PTSUNNY   68  67  98 CALM      30.05S FOG
RUTHERFORDTON  CLOUDY    67  67  99 NW3       30.09S
ASHEVILLE      PTCLDY    64  63  96 NW7       30.14S

$$


USA.gov is the U.S. government's official web portal to all federal, state and local government web resources and services.